Hourly Data Report for June 04, 2019

TORONTO CITY
ONTARIO
Current Station Operator: ECCC - MSC

43°40'00.000" N
79°24'00.000" W
112.50 m
6158355
71508
XTO

Download Data

Hourly Data (June 2019)
Hourly Data Report for June 4, 2019
TIME
LST
Temp Definition
°C
Dew Point Definition
°C
Rel Hum Definition
%
Precip. Amount Definition
mm

Wind Dir Definition
10's deg

Wind Spd Definition
km/h
Visibility Definition
km
Stn Press Definition
kPa
Hmdx Definition


Wind Chill Definition


Weather Definition


00:00 10.4 0.8 51 0.0 LegendMM LegendMM   100.48     LegendNANA
01:00 9.9 1.4 55 0.0 LegendMM LegendMM   100.49     LegendNANA
02:00 9.3 2.2 61 0.0 LegendMM LegendMM   100.49     LegendNANA
03:00 8.7 2.2 64 0.0 LegendMM LegendMM   100.48     LegendNANA
04:00 8.5 2.8 67 0.0 LegendMM LegendMM   100.46     LegendNANA
05:00 9.3 3.3 66 0.0 LegendMM LegendMM   100.48     LegendNANA
06:00 10.5 3.6 62 0.0 LegendMM LegendMM   100.49     LegendNANA
07:00 11.3 4.7 64 0.0 LegendMM LegendMM   100.52     LegendNANA
08:00 11.7 5.2 64 0.0 LegendMM LegendMM   100.50     LegendNANA
09:00 11.8 6.3 69 0.0 LegendMM LegendMM   100.43     LegendNANA
10:00 13.9 6.8 62 0.0 LegendMM LegendMM   100.38     LegendNANA
11:00 13.3 5.8 61 0.0 LegendMM LegendMM   100.34     LegendNANA
12:00 13.9 6.3 60 0.0 LegendMM LegendMM   100.30     LegendNANA
13:00 14.4 7.2 62 0.0 LegendMM LegendMM   100.22     LegendNANA
14:00 15.1 7.2 59 0.0 LegendMM LegendMM   100.13     LegendNANA
15:00 15.0 6.2 55 0.0 LegendMM LegendMM   100.00     LegendNANA
16:00 14.9 6.2 56 0.0 LegendMM LegendMM   99.89     LegendNANA
17:00 13.9 5.2 56 0.0 LegendMM LegendMM   99.79     LegendNANA
18:00 12.7 5.5 62 0.0 LegendMM LegendMM   99.75     LegendNANA
19:00 11.4 6.5 72 0.0 LegendMM LegendMM   99.72     LegendNANA
20:00 12.0 6.8 71 0.0 LegendMM LegendMM   99.63     LegendNANA
21:00 12.5 7.2 70 0.0 LegendMM LegendMM   99.64     LegendNANA
22:00 12.4 7.3 71 0.0 LegendMM LegendMM   99.63     LegendNANA
23:00 12.6 7.9 73 0.0 LegendMM LegendMM   99.60     LegendNANA

Notes on Data Quality.

Legend

  • E = Estimated
  • M = Missing
  • NA = Not Available*
  • [empty] = Indicates an unobserved value
Date modified: